Location: Arlington
(31.4185°N, 90.5568°W)
Time: 12:39:06
(UTC+00:00)

Hubble Space Telescope - Visible Passes

Search period start: 20 September 2021 00:00
Search period end: 30 September 2021 00:00
Orbit: 535 x 539 km, 28.5° (Epoch: 19 September)

Date Brightness Start Highest point End Pass type
(mag) Time Alt. Az. Time Alt. Az. Time Alt. Az.
20 Sep 2.4 01:16:48 10° WSW 01:20:13 25° SSW 01:21:56 19° SSE visible
21 Sep 2.7 01:05:59 10° WSW 01:09:07 21° SSW 01:11:38 13° SSE visible
22 Sep 3.0 00:55:15 10° WSW 00:58:00 17° SSW 01:00:46 10° SSE visible
23 Sep 3.3 00:44:42 10° WSW 00:46:53 14° SSW 00:49:04 10° S visible
24 Sep 3.5 00:34:39 10° SW 00:35:45 11° SSW 00:36:51 10° S visible
